Penticton, British Columbia

11:06 PM PST on February 12, 2016 (GMT -0800)
Penticton

Weather History for CYYF - February, 2013

Change the Weather History Date:

Monday, February 4, 2013

  Actual Average Record
Temperature  
Mean Temperature 32 °F -  
Max Temperature 37 °F 41 °F 50 °F (2005)
Min Temperature 28 °F 27 °F 12 °F (2008)
Degree Days  
Heating Degree Days 32    
Moisture  
Dew Point 31 °F    
Average Humidity 83    
Maximum Humidity 87    
Minimum Humidity 72    
Precipitation  
Precipitation 0.00 in 0.03 in - ()
Sea Level Pressure  
Sea Level Pressure 30.07 in    
Wind  
Wind Speed 17 mph ()    
Max Wind Speed 26 mph    
Max Gust Speed 32 mph    
Visibility 15.0 miles    
Events      
Averages and records for this station are not official NWS values.
T = Trace of Precipitation, MM = Missing Value Source: Averaged Metar Reports

Daily Weather History Graph

Daily Weather History Graph

Search for Another Location

Airport or City:

Trip Planner

Search our weather history database for the weather conditions in past years. The results will help you decide how hot, cold, wet, or windy it might be!

Date:

Astronomy

Feb. 04, 2013 Rise Set
Actual Time 7:25 AM PST 5:00 PM PST
Civil Twilight 6:51 AM PST 5:34 PM PST
Nautical Twilight 6:13 AM PST 6:12 PM PST
Astronomical Twilight 5:35 AM PST 6:49 PM PST
Moon 2:14 AM PST (2/4) 11:19 AM PST (2/4)
Length of Visible Light 10h 42m
Length of Day
9h 34m
Last Quarter, 36% of the Moon is Illuminated
Feb 4
Last Quarter
Feb 9
New
Feb 17
First Quarter
Feb 25
Full
Mar 4
Last Quarter

Hourly Weather History & Observations

Time (PST) Temp. Windchill Dew Point Humidity Pressure Visibility Wind Dir Wind Speed Gust Speed Precip Events Conditions
12:00 AM 33.8 °F 22.2 °F 30.2 °F 87% 30.14 in 15.0 mi South 20.7 mph 27.6 mph N/A   Overcast
1:00 AM 33.8 °F 23.2 °F 30.2 °F 87% 30.14 in 15.0 mi SSE 17.3 mph 25.3 mph N/A   Overcast
3:00 AM 33.8 °F 21.6 °F 30.2 °F 87% 30.11 in 15.0 mi South 23.0 mph 31.1 mph N/A   Overcast
4:00 AM 35 °F - 30 °F 76% 30.12 in 15 mi South 19.6 mph - -   Overcast
4:00 AM 33.8 °F 22.8 °F 30.2 °F 87% 30.12 in 15.0 mi South 18.4 mph - N/A   Overcast
5:00 AM 33.8 °F 22.8 °F 30.2 °F 87% 30.10 in 15.0 mi South 18.4 mph 27.6 mph N/A   Overcast
6:00 AM 33.8 °F 22.2 °F 30.2 °F 87% 30.11 in 15.0 mi South 20.7 mph 29.9 mph N/A   Overcast
7:00 AM 33.8 °F 20.8 °F 30.2 °F 87% 30.09 in 15.0 mi South 26.5 mph 32.2 mph N/A   Overcast
8:00 AM 33.8 °F 21.6 °F 30.2 °F 87% 30.10 in 15.0 mi South 23.0 mph - N/A   Overcast
9:00 AM 35.6 °F 25.2 °F 30.2 °F 81% 30.11 in 15.0 mi SSE 18.4 mph 24.2 mph N/A   Mostly Cloudy
10:00 AM 35 °F - 31 °F 78% 30.11 in 15 mi South 19.6 mph - -   Scattered Clouds
10:00 AM 35.6 °F 24.8 °F 30.2 °F 81% 30.10 in 15.0 mi South 19.6 mph 27.6 mph N/A   Overcast
11:00 AM 35.6 °F 24.2 °F 30.2 °F 81% 30.10 in 15.0 mi South 21.9 mph 29.9 mph N/A   Mostly Cloudy
12:00 PM 35.6 °F 24.5 °F 30.2 °F 81% 30.08 in 15.0 mi South 20.7 mph 31.1 mph N/A   Mostly Cloudy
1:00 PM 37.4 °F 26.9 °F 30.2 °F 75% 30.06 in 15.0 mi South 20.7 mph 26.5 mph N/A   Mostly Cloudy
2:00 PM 37.4 °F 27.8 °F 30.2 °F 75% 30.06 in 15.0 mi SSE 17.3 mph 23.0 mph N/A   Mostly Cloudy
3:00 PM 37.4 °F 28.2 °F 30.2 °F 75% 30.06 in 15.0 mi South 16.1 mph 23.0 mph N/A   Mostly Cloudy
4:00 PM 37 °F - 31 °F 72% 30.06 in 15 mi South 13.8 mph - -   Mostly Cloudy
4:00 PM 37.4 °F 28.5 °F 32.0 °F 81% 30.05 in 15.0 mi South 15.0 mph - N/A   Mostly Cloudy
5:00 PM 35.6 °F 26.2 °F 32.0 °F 87% 30.04 in 15.0 mi South 15.0 mph 21.9 mph N/A   Mostly Cloudy
6:00 PM 35.6 °F 26.2 °F 32.0 °F 87% 30.04 in 15.0 mi South 15.0 mph 21.9 mph N/A   Mostly Cloudy
7:00 PM 35.6 °F 25.5 °F 32.0 °F 87% 30.03 in 15.0 mi South 17.3 mph 25.3 mph N/A   Mostly Cloudy
8:00 PM 35.6 °F 28.0 °F 32.0 °F 87% 30.04 in 15.0 mi SSW 10.4 mph 20.7 mph N/A   Overcast
9:00 PM 35.6 °F 28.6 °F 32.0 °F 87% 30.01 in 15.0 mi South 9.2 mph - N/A   Overcast
10:00 PM 35 °F - 31 °F 79% 30.02 in 15 mi South 15.0 mph - -   Overcast
10:00 PM 35.6 °F 26.6 °F 30.2 °F 81% 30.02 in 15.0 mi South 13.8 mph 20.7 mph N/A   Overcast
11:00 PM 35.6 °F 26.6 °F 30.2 °F 81% 30.00 in 15.0 mi South 13.8 mph - N/A   Overcast